Theta_e
292 292 292 292 292 292 292 291 292 291 292 290 291 290 290 291 291 291 291 291 291 291 292 292 293 293 293 293 294 294 294 295 295 296 297 297 298 300 307 309 308 308 310 313 314 315 316 317 319 320 320 321 322 323 324 325 325 325 326 330 335 338 339 340 341 342 343 344 344 344 345 344 344 344 345 345 345 345 345 345 345 345 345 345 344
292 291 291 292 292 291 291 291 291 291 290 290 290 290 290 290 290 291 291 290 290 291 292 291 292 292 292 293 293 293 293 293 293 293 294 295 296 297 304 306 307 307 308 310 312 314 315 317 317 319 320 320 320 321 323 324 325 326 325 325 327 332 335 338 339 341 341 343 343 343 344 344 344 344 344 345 344 344 344 344 344 345 344 344 343
292 291 290 291 291 290 291 291 290 290 290 290 290 290 290 290 291 290 290 290 290 290 291 291 291 291 292 292 292 292 291 292 292 293 293 294 294 295 297 303 306 307 306 307 309 311 313 315 316 317 318 319 319 320 321 322 323 325 326 326 325 326 331 334 337 339 340 341 343 343 343 343 343 343 343 344 344 344 344 344 344 343 343 343 342
292 291 291 290 290 290 290 290 289 289 289 289 289 290 290 291 291 291 291 290 290 290 291 290 289 290 291 291 291 291 291 291 292 292 293 293 293 294 294 296 301 305 306 306 307 308 310 311 313 314 316 317 318 319 320 320 321 322 324 325 326 325 327 332 335 337 338 339 340 341 342 342 342 343 343 343 343 343 343 343 343 343 342 343 342
291 291 291 289 290 290 289 290 289 289 289 289 290 290 289 289 290 290 289 289 289 289 291 290 289 289 289 290 290 290 291 291 291 291 292 292 292 292 293 295 295 300 303 305 305 307 308 309 310 312 314 315 317 318 319 319 319 320 321 323 325 327 327 326 327 331 335 338 340 340 340 342 342 342 342 342 342 342 342 343 343 343 342 341 342
290 290 290 288 289 289 288 289 288 288 288 289 288 288 288 288 288 288 290 289 287 288 288 288 288 288 288 289 289 289 289 289 290 290 291 291 292 292 292 293 293 294 296 302 305 305 306 307 308 309 310 312 313 315 316 317 318 318 319 320 321 323 325 327 328 328 331 335 338 339 340 340 340 342 342 342 342 342 342 342 343 342 342 342 342
290 289 289 288 288 288 288 288 289 288 287 288 288 288 288 287 287 287 287 287 287 288 288 287 287 287 288 288 288 288 288 289 289 289 290 291 291 292 292 292 293 294 296 295 299 302 304 306 307 309 310 311 312 313 314 315 316 317 318 319 320 321 323 324 324 327 333 334 335 338 338 339 339 340 340 340 342 342 342 342 342 343 343 342 341
290 289 288 288 287 287 287 288 288 287 288 287 288 287 287 288 287 287 285 285 287 286 287 286 286 286 287 287 287 288 288 288 289 289 290 290 290 291 292 292 293 293 297 295 296 298 304 306 306 307 308 308 309 310 312 314 315 316 317 318 320 320 320 322 324 325 324 328 334 337 337 338 338 339 339 338 340 342 342 342 342 342 342 342 341
290 289 287 287 287 286 287 288 288 287 287 287 286 288 286 289 286 288 286 285 285 285 285 285 285 286 286 286 287 288 287 288 288 289 291 290 290 290 291 292 294 298 294 295 296 296 300 305 306 306 306 307 307 309 311 313 314 315 316 317 318 320 320 320 322 323 323 323 323 327 335 337 338 339 340 340 339 340 341 342 341 342 342 340 339
289 289 287 287 287 287 287 288 287 287 286 286 286 286 286 286 285 286 286 285 284 284 284 285 286 286 286 286 286 286 287 287 288 291 289 289 289 290 291 292 293 293 294 295 295 295 296 299 304 305 305 306 307 308 309 310 312 313 314 315 316 317 317 317 318 319 321 323 324 324 326 331 336 338 338 338 340 340 341 341 341 341 341 341 341
289 289 287 287 286 286 286 287 287 286 285 285 285 286 287 285 284 284 285 285 284 284 284 285 286 286 285 285 286 286 287 287 288 288 288 289 290 292 293 292 293 293 294 294 295 295 296 296 296 297 297 303 306 307 308 310 310 310 311 313 314 316 317 317 318 318 318 320 322 324 324 327 330 336 337 338 338 339 341 341 341 341 342 342 341
288 288 287 286 286 286 286 287 286 285 285 284 284 284 284 284 283 284 284 284 286 285 285 284 284 284 285 286 285 285 285 286 286 287 287 288 289 290 291 292 292 293 294 295 295 295 295 294 295 295 296 299 304 307 306 306 306 309 311 313 314 315 316 317 319 320 320 321 322 322 323 325 327 332 336 337 337 337 337 340 342 342 342 342 341
288 287 287 287 286 285 285 286 285 285 284 284 285 284 285 284 284 284 284 283 283 284 284 284 283 282 283 282 283 284 286 287 286 287 287 288 288 289 290 291 290 289 290 293 293 293 292 292 293 294 295 295 297 302 305 307 307 307 308 310 312 313 314 317 319 320 319 317 315 317 324 324 325 329 334 336 336 337 337 336 339 342 342 342 342
288 287 287 286 285 285 285 285 285 284 284 285 285 287 284 283 284 283 284 283 282 284 284 284 281 280 279 280 281 283 284 285 285 286 287 286 285 285 285 285 286 287 288 289 289 290 291 291 292 292 293 294 295 295 296 296 298 304 307 310 311 312 313 313 313 315 314 314 314 315 315 324 326 326 330 334 335 335 337 337 336 337 342 342 343
287 287 287 286 285 284 284 284 285 285 284 283 283 283 283 283 283 282 282 282 283 284 284 284 279 280 281 279 277 277 282 283 285 283 284 285 285 284 285 285 286 287 288 289 288 289 290 291 291 292 293 293 293 293 293 295 296 300 304 304 305 308 310 311 312 313 313 313 315 316 316 318 326 328 328 331 334 334 336 337 337 335 338 342 342
287 287 287 286 285 284 284 284 284 284 284 283 283 282 283 283 283 283 283 280 281 281 284 283 282 280 276 277 277 277 275 279 279 281 283 283 283 284 285 286 285 285 286 286 287 288 289 289 290 291 292 292 292 293 293 294 296 298 299 300 303 305 307 309 310 313 313 314 315 315 315 318 323 328 329 330 331 333 334 335 336 337 335 337 342
287 287 286 285 285 285 283 283 283 284 283 282 282 282 282 283 283 282 281 280 280 280 281 283 282 283 280 276 275 275 275 277 278 279 281 281 282 283 283 284 284 285 286 286 287 287 287 288 289 290 290 291 291 292 293 293 294 295 295 297 300 301 302 307 310 312 314 315 316 315 313 314 318 321 327 329 331 332 333 334 335 337 336 334 338
286 286 286 285 284 284 283 283 283 283 284 283 282 282 282 282 282 282 281 281 281 280 279 282 283 283 283 280 279 274 275 277 276 274 280 282 281 282 282 283 283 284 284 285 285 286 287 288 289 289 290 290 291 291 292 292 293 293 293 293 299 302 302 304 308 310 310 312 314 314 313 312 314 316 319 326 329 331 333 333 333 335 337 336 335
286 285 285 285 284 284 283 283 283 282 283 282 281 281 282 282 283 282 282 283 281 279 279 279 280 281 283 283 282 282 281 278 275 277 275 278 280 280 281 282 283 283 284 284 285 286 286 286 287 287 288 289 290 290 291 291 293 294 296 297 301 301 302 302 303 305 308 311 313 313 314 314 314 315 317 317 323 328 330 332 333 335 336 336 337
285 285 285 284 284 283 283 283 282 282 283 282 281 281 283 283 283 282 282 281 280 279 278 279 277 278 281 280 280 281 281 280 280 277 276 275 277 280 281 281 282 282 283 284 284 284 285 286 286 287 288 288 289 289 289 290 290 291 292 297 299 300 301 301 301 302 304 307 310 313 313 314 314 315 318 319 318 322 327 330 332 334 335 335 335
285 285 284 284 284 283 282 282 282 282 282 283 281 281 281 281 280 281 280 281 281 281 279 278 279 277 278 277 278 278 279 279 279 278 276 275 275 277 278 280 281 282 282 283 284 285 285 286 287 287 287 287 288 288 289 289 290 290 293 296 298 300 301 301 301 302 304 305 306 308 311 314 315 315 316 318 317 319 321 325 329 333 335 335 335
284 284 283 283 283 283 282 281 281 281 282 281 281 281 281 280 280 280 281 280 280 280 280 279 279 279 279 278 277 276 277 277 276 276 277 277 275 276 277 277 276 278 281 282 283 283 284 284 284 284 285 285 286 287 288 288 289 290 292 296 298 298 299 300 302 303 303 304 304 304 307 309 311 314 315 315 316 318 320 321 325 329 333 334 336
283 283 283 283 282 282 281 281 281 282 281 281 280 280 280 280 281 281 280 280 279 279 280 280 280 279 278 278 277 277 276 275 275 276 276 275 275 275 276 277 277 276 279 280 282 282 283 283 283 283 283 284 285 286 286 288 290 291 294 295 295 296 297 300 301 301 302 302 303 302 304 306 308 310 311 310 314 315 318 319 321 324 328 332 335
282 282 282 282 282 281 281 281 281 280 280 280 280 280 280 280 279 279 279 279 279 279 278 278 278 278 278 278 278 278 278 277 277 277 276 276 276 275 275 276 277 277 279 280 281 281 281 281 282 282 283 283 284 286 287 287 288 291 290 291 293 294 296 298 299 299 301 300 301 301 301 305 306 306 308 309 313 319 318 319 322 322 323 327 331
281 281 281 281 281 280 280 280 280 280 280 280 280 279 279 279 278 278 278 278 278 278 277 277 277 277 276 277 277 277 277 278 278 277 277 277 276 274 276 277 274 275 277 278 277 279 280 280 282 282 282 283 284 285 285 285 285 287 289 289 291 292 293 295 296 297 298 299 301 301 302 303 304 305 307 310 312 314 316 316 319 321 322 324 328
281 280 281 281 281 281 281 280 280 279 279 279 279 279 279 278 278 278 277 278 277 277 277 277 277 277 277 277 277 277 277 278 277 277 276 276 275 274 274 275 275 274 276 276 277 277 278 280 280 282 282 282 282 283 283 283 284 287 289 287 288 291 292 294 297 298 298 298 299 299 300 301 304 305 306 310 311 312 314 316 317 319 320 321 323
281 281 281 281 280 280 279 279 279 279 279 278 280 278 278 278 278 277 277 277 277 277 277 276 277 276 276 276 277 277 277 277 277 277 277 276 276 275 274 272 273 274 274 275 276 276 277 279 280 280 281 281 281 281 282 282 284 286 286 284 285 288 291 295 297 297 296 296 297 298 299 301 303 306 305 305 307 307 309 312 315 315 318 319 319
280 280 280 280 279 278 278 278 278 278 278 277 277 277 276 276 276 276 276 278 277 276 276 276 276 276 276 276 276 276 277 277 277 277 277 277 277 276 276 274 272 270 273 273 274 275 278 276 278 280 279 280 280 280 282 282 281 284 284 283 283 285 288 290 292 294 296 297 297 298 298 299 301 302 303 304 304 305 306 307 308 307 309 311 313
280 280 279 278 278 278 277 277 277 277 277 277 276 276 276 276 276 275 275 276 276 275 276 275 276 276 275 275 275 276 276 276 276 277 277 277 277 277 276 275 274 272 270 270 272 273 275 277 275 277 278 278 279 280 280 279 281 282 282 282 281 281 284 287 289 291 293 295 295 296 296 297 299 302 304 304 305 305 305 305 306 306 307 309 310
279 279 278 278 277 279 277 276 276 276 276 276 276 276 275 276 275 275 275 275 275 275 275 275 275 275 275 275 275 275 276 275 276 276 276 276 276 276 276 276 276 273 272 271 271 274 274 277 277 276 278 277 278 279 279 279 282 281 280 280 280 280 284 285 287 289 291 292 293 295 295 295 296 298 300 304 303 303 304 305 306 307 308 309 310
278 278 277 277 277 277 276 276 276 276 276 276 276 275 275 275 275 275 275 274 274 274 274 274 275 274 274 274 274 274 275 274 275 275 275 275 275 275 275 275 275 275 273 272 270 273 276 274 276 277 277 277 278 277 278 278 280 280 279 279 279 282 284 283 286 288 289 290 291 293 294 295 295 297 299 299 303 305 305 306 305 306 308 309 310
277 277 277 276 276 276 276 276 275 275 275 274 274 274 274 274 274 274 274 274 273 273 273 274 274 274 273 273 273 273 274 274 273 274 274 274 274 274 274 274 274 274 274 273 271 271 275 275 275 276 277 276 277 276 276 277 279 281 279 279 280 282 281 281 284 286 288 289 291 292 292 293 294 296 296 299 300 302 304 304 306 306 308 310 310
277 277 276 276 276 276 275 275 275 274 274 274 274 274 273 273 273 273 273 273 272 272 273 272 273 273 272 272 272 273 273 273 273 273 273 273 273 273 274 274 273 273 273 272 271 271 273 276 275 275 276 277 275 277 276 276 277 277 279 278 278 279 279 280 281 284 286 288 289 291 292 293 294 295 295 295 300 303 305 305 306 305 306 307 309
277 276 276 276 275 275 274 274 274 273 274 273 273 273 273 272 272 273 272 272 272 272 272 271 272 272 272 271 272 272 273 272 272 272 272 272 272 272 273 273 272 272 273 272 271 271 270 274 274 275 275 276 274 276 275 275 275 277 276 277 278 278 278 279 281 282 285 287 289 290 292 292 294 295 297 295 300 302 303 304 304 304 304 305 306
276 276 275 275 275 274 274 274 273 273 273 272 272 272 272 272 272 272 272 271 271 271 271 271 271 271 271 271 271 272 272 271 272 272 272 272 273 272 272 272 271 272 272 273 271 270 270 271 273 273 273 274 274 274 276 276 276 276 276 276 277 278 280 280 280 282 285 287 290 292 293 293 295 296 296 296 297 300 302 303 303 303 304 305 305
275 275 275 274 274 273 273 272 272 272 272 272 272 272 272 271 271 271 271 271 271 271 271 271 271 271 271 270 271 271 271 271 271 271 271 272 272 272 272 272 272 271 272 272 272 271 271 270 271 272 273 273 273 275 276 276 276 276 276 277 278 278 279 281 281 281 283 286 288 289 290 291 293 295 296 297 296 300 300 302 303 303 303 304 304
274 274 274 273 273 272 272 272 271 271 271 271 271 271 271 271 271 271 271 271 271 271 271 271 272 271 271 270 271 271 271 270 270 271 272 272 272 272 271 272 272 272 272 272 272 272 271 270 270 272 273 273 274 274 276 275 276 276 276 276 276 276 277 278 279 281 283 287 288 289 290 292 293 294 295 296 298 299 300 300 303 303 303 304 304
274 273 273 272 272 272 271 271 271 271 271 271 271 271 271 271 271 271 271 271 271 271 271 271 271 271 271 271 271 271 271 271 271 272 272 272 273 272 272 272 272 273 272 272 272 272 271 270 270 270 272 272 272 273 275 275 274 273 274 275 276 277 277 277 279 281 283 284 285 286 289 290 291 294 294 296 297 297 298 300 300 302 301 301 302
273 272 272 271 272 271 271 271 270 270 270 270 270 270 270 270 270 270 270 270 271 271 271 271 271 271 272 272 272 273 272 272 272 272 272 272 272 272 273 272 272 272 272 271 272 271 271 270 270 271 271 272 273 271 274 275 274 274 273 273 274 277 278 278 278 280 282 283 286 288 289 290 292 292 294 295 297 298 299 300 300 301 300 299 301
272 272 271 271 270 270 270 270 271 270 270 270 270 270 270 270 270 270 270 270 270 270 271 272 272 273 273 274 274 274 274 273 273 273 273 273 273 272 273 273 273 272 271 271 271 271 271 270 270 270 271 271 272 273 274 274 273 273 275 274 273 274 276 278 279 279 281 283 283 284 287 289 291 293 294 295 296 297 299 299 299 299 298 298 300
272 271 271 271 270 270 270 270 270 270 270 270 270 270 270 270 270 270 270 270 271 272 273 273 274 274 274 274 275 275 275 277 278 278 278 278 276 275 274 273 272 272 271 272 271 271 271 270 270 271 271 271 271 272 272 272 272 272 274 274 273 274 275 275 276 279 281 282 284 285 286 289 290 291 293 293 294 296 296 297 298 297 297 299 300
271 270 270 270 270 270 269 270 270 271 271 271 272 275 275 272 271 271 272 273 273 273 273 273 274 274 275 275 275 277 278 278 278 279 279 279 279 278 276 276 275 274 273 272 271 271 271 270 270 270 270 270 271 272 272 273 274 274 273 273 273 274 274 274 276 277 279 280 281 284 286 289 289 291 292 292 293 294 295 297 297 298 298 300 301
270 270 270 269 269 270 270 270 270 271 271 271 274 276 276 277 275 274 274 274 274 274 274 274 274 274 275 275 275 276 276 277 276 278 279 279 279 279 280 280 279 276 274 274 273 273 272 270 271 271 271 270 271 273 273 273 273 273 273 273 273 274 273 272 272 276 280 281 282 284 286 290 291 290 291 292 293 294 296 297 299 299 300 302 302
269 269 269 269 269 270 270 270 270 270 271 273 275 276 276 277 277 275 275 274 274 274 274 274 274 274 274 274 274 274 275 275 275 275 276 278 279 279 279 279 279 280 280 276 274 273 273 272 272 272 272 272 272 273 273 273 273 274 274 274 274 274 274 274 274 274 279 282 281 281 282 286 288 287 287 289 290 292 294 296 299 300 302 303 303
269 268 269 269 269 270 270 270 270 270 270 273 274 275 276 277 277 277 275 275 275 275 274 274 274 273 273 273 273 274 274 276 276 275 275 275 277 278 279 279 279 279 280 280 280 276 275 273 273 272 273 274 273 274 275 274 276 274 274 274 275 275 276 275 275 276 278 282 282 279 278 282 284 285 285 288 289 291 292 295 297 300 302 303 303
268 268 269 269 269 269 270 269 269 269 270 271 274 275 275 276 277 277 275 275 275 274 273 273 273 273 273 273 273 273 274 274 275 275 275 275 275 275 275 275 275 277 279 279 279 279 278 276 274 273 274 275 274 275 277 278 276 275 275 275 276 276 275 275 277 278 279 281 279 279 277 279 282 283 284 287 289 289 291 294 297 298 301 303 304
268 268 268 268 269 269 269 269 268 268 268 271 273 275 275 276 277 277 275 274 273 273 273 273 273 273 273 273 273 273 274 274 275 276 275 275 275 275 275 275 275 275 276 276 276 276 276 276 275 275 275 276 276 276 276 277 277 277 277 276 276 276 277 278 278 278 279 280 280 278 274 278 282 284 285 286 289 290 292 295 297 299 300 302 304
268 268 268 269 268 268 268 268 267 267 267 271 273 274 275 276 277 275 273 273 272 272 273 273 273 273 274 274 273 273 274 274 276 279 278 276 275 274 274 274 275 275 276 278 279 280 278 277 277 276 276 277 279 277 278 277 277 278 278 278 277 276 275 274 273 276 276 279 280 279 278 280 285 284 285 287 288 288 290 292 295 298 299 301 304
268 267 267 268 268 267 267 267 266 266 267 269 271 273 274 276 275 273 273 272 272 272 272 273 273 273 274 274 274 274 274 274 276 278 279 278 275 274 273 273 274 274 274 275 279 280 281 281 282 282 283 283 283 284 284 284 280 280 277 275 274 275 274 272 273 274 275 278 281 282 281 281 284 285 285 287 287 287 288 290 292 296 299 301 304
267 267 267 267 267 267 266 266 266 266 266 268 271 273 274 275 275 273 272 272 271 272 272 273 273 273 274 276 276 274 273 273 277 278 279 277 274 273 273 273 273 273 274 276 276 277 280 281 281 281 282 282 283 283 284 284 284 283 278 274 276 277 274 274 273 275 276 278 280 283 281 281 285 286 284 285 286 287 289 290 292 295 298 301 303
267 267 266 266 266 266 266 266 268 267 267 268 271 272 274 275 274 273 272 271 271 271 271 272 273 274 274 275 276 275 274 275 278 278 278 277 274 274 274 273 273 272 273 275 274 274 275 276 276 277 278 279 279 278 279 282 283 282 280 279 279 277 275 275 275 275 274 276 280 283 280 281 283 284 284 284 283 286 288 290 292 296 300 304 306
Wind_Speed
4 4 4 3 3 3 3 4 4 4 5 5 5 6 6 6 6 6 6 6 6 7 6 6 6 6 6 6 6 6 5 6 5 5 5 6 6 7 11 13 16 17 18 19 20 20 20 20 20 21 20 20 20 20 20 20 21 21 20 20 21 21 21 20 19 18 16 15 15 16 18 19 19 18 18 19 18 19 22 21 23 26 24 22 25
4 3 4 2 3 3 3 3 3 3 5 5 5 6 6 6 5 5 5 6 6 7 6 6 6 6 6 6 6 7 6 6 7 7 7 6 6 6 10 12 14 17 18 18 19 20 20 20 20 20 21 21 21 21 20 20 21 22 21 21 21 22 22 20 19 19 18 16 16 16 17 18 19 19 19 19 19 19 21 23 23 25 31 29 26
4 3 3 2 3 3 2 3 3 3 5 5 4 4 4 5 5 4 5 6 6 6 7 6 6 6 6 6 6 6 7 7 7 7 7 7 7 7 8 13 12 14 16 18 19 19 20 20 20 20 20 21 21 21 21 20 20 21 22 22 21 22 23 22 21 20 20 19 18 17 18 19 19 19 19 19 19 19 20 22 24 24 23 21 23
3 3 1 2 3 2 2 3 3 5 4 3 5 4 4 4 4 4 4 4 5 6 6 6 6 7 6 6 6 7 7 7 7 7 7 7 7 7 7 8 12 13 14 17 19 18 18 19 19 20 20 20 20 21 21 20 20 20 21 22 23 22 22 22 22 20 19 19 20 20 18 19 20 20 19 19 20 20 19 21 24 24 24 25 25
4 2 1 3 3 2 2 2 2 4 3 4 4 3 4 5 4 4 5 5 6 6 5 6 7 7 7 7 7 7 7 6 7 8 8 7 7 7 7 6 6 10 13 14 17 18 19 19 18 18 19 19 20 20 21 21 21 21 21 21 22 23 23 23 24 23 21 21 20 20 20 19 21 21 21 21 21 21 20 21 23 25 24 26 25
3 3 1 3 2 2 3 2 4 4 3 4 4 5 5 5 4 5 5 5 5 5 6 7 6 6 6 6 6 7 7 8 8 8 8 8 7 7 7 6 6 6 5 9 10 14 18 19 20 20 19 19 20 21 21 22 22 22 22 21 22 23 24 24 23 24 24 22 21 21 20 21 23 22 22 22 22 22 21 21 22 25 26 28 29
3 2 3 2 2 3 2 3 4 3 3 3 4 4 5 3 5 5 5 4 5 5 5 6 6 7 6 6 6 7 7 8 9 9 8 8 7 6 6 6 6 6 5 6 7 10 14 17 18 19 20 19 19 20 22 22 22 23 23 22 22 22 22 24 24 24 24 23 22 20 20 20 21 22 26 24 23 22 22 22 22 23 26 28 29
4 2 3 3 2 3 2 4 3 2 2 3 3 5 4 3 3 4 4 4 5 6 6 6 6 7 7 6 7 7 8 8 9 9 9 7 7 6 6 6 6 6 6 6 6 7 11 14 16 18 19 19 20 22 23 22 22 22 23 23 23 23 22 22 23 25 25 24 21 20 21 20 20 21 24 27 26 22 22 22 22 21 23 26 27
4 3 3 3 3 3 1 2 2 1 1 2 3 3 3 3 3 3 3 6 5 6 6 6 6 7 7 8 8 8 8 8 9 9 8 7 6 7 6 6 5 6 6 6 6 6 7 11 13 17 17 17 19 21 21 21 22 22 22 22 23 23 23 23 23 23 24 24 25 24 22 21 22 22 21 24 25 24 23 22 22 22 22 26 31
4 4 3 3 3 1 1 0 1 0 1 2 4 3 3 3 3 2 4 5 6 6 8 7 6 6 7 8 9 8 8 9 9 9 7 7 6 6 6 6 5 6 6 5 6 6 6 8 12 13 13 13 17 20 21 21 23 23 23 23 23 23 24 24 24 23 23 24 25 25 25 24 23 22 22 24 26 25 24 22 22 22 23 23 25
4 4 3 3 3 2 1 1 1 1 1 2 3 3 2 3 4 5 3 4 6 7 7 7 7 7 8 10 9 9 9 9 9 8 6 6 6 6 5 6 6 6 6 6 6 6 6 5 5 5 6 12 14 19 20 21 22 22 23 23 23 23 24 24 25 25 23 22 24 25 26 25 25 24 22 22 27 27 24 24 23 23 23 23 23
5 4 4 3 2 2 2 1 1 2 2 2 2 1 2 3 3 4 6 6 5 7 6 6 6 8 9 8 9 10 11 11 10 8 6 6 6 6 6 6 6 5 5 5 5 5 4 5 5 7 6 8 13 14 18 21 21 22 22 23 24 24 24 25 23 24 23 22 22 24 26 27 26 25 24 23 24 27 29 25 24 24 23 23 24
5 5 4 4 3 2 3 2 2 3 3 2 0 2 2 2 3 3 4 7 5 4 5 5 7 7 5 8 9 8 11 11 10 7 7 6 5 6 5 5 6 8 8 6 5 4 5 7 7 6 7 7 8 10 12 14 14 19 25 26 26 25 25 24 24 22 22 25 26 26 25 27 27 27 25 23 24 26 27 28 26 24 24 24 26
5 5 4 4 4 3 2 2 2 2 1 0 1 1 2 3 2 3 2 4 6 5 8 6 3 7 12 13 10 7 7 9 6 1 3 7 9 10 8 8 7 7 6 7 5 5 5 6 7 7 8 7 6 5 7 10 11 17 23 24 24 24 25 27 27 28 28 29 31 31 28 28 27 28 29 26 25 25 27 26 27 28 28 27 25
6 5 5 4 4 3 2 2 1 1 0 1 1 2 1 2 2 3 5 3 4 5 6 3 4 5 7 7 7 11 4 6 1 8 14 11 8 6 7 6 7 5 5 6 7 7 5 5 7 8 7 6 8 8 9 10 12 16 18 22 25 26 27 28 29 29 29 30 27 28 29 27 28 28 28 29 27 26 27 29 29 28 29 29 28
6 5 5 4 4 4 3 2 1 1 1 0 1 2 2 3 3 3 2 5 3 3 3 4 2 5 6 2 8 5 9 0 8 10 13 11 4 5 3 5 8 8 8 7 6 5 6 7 9 9 9 9 8 9 9 9 14 17 18 16 15 22 26 29 29 28 28 28 25 24 26 27 28 28 29 30 30 29 29 28 29 27 28 31 28
6 6 6 5 4 4 3 2 2 1 1 1 2 3 3 3 2 2 3 4 6 3 3 3 4 2 2 4 5 2 2 11 15 11 3 2 6 9 7 8 5 5 5 6 6 7 8 9 8 9 10 10 10 9 10 11 10 10 13 16 17 23 26 28 27 27 27 26 25 26 27 28 29 29 29 29 30 30 31 29 28 29 28 30 28
6 6 5 4 4 4 3 3 2 2 3 4 3 3 3 3 3 3 4 4 4 6 5 3 4 4 4 6 5 6 10 7 3 9 5 9 11 6 4 4 4 5 6 8 8 8 6 8 8 10 10 10 10 10 10 11 11 11 11 13 21 26 26 27 28 29 31 31 31 30 31 31 31 31 30 29 29 30 30 31 30 29 29 28 30
6 6 5 5 4 4 4 4 3 3 3 3 3 3 3 3 3 3 3 3 3 6 6 5 4 4 5 6 7 7 6 6 6 9 19 5 6 3 3 4 5 6 7 7 8 9 9 9 11 11 11 9 10 10 10 12 15 16 19 20 21 25 27 27 28 30 31 30 30 30 31 31 29 30 32 30 30 30 31 30 30 30 30 29 30
7 5 6 5 5 4 4 4 4 3 3 3 3 3 3 3 2 3 3 4 4 6 6 5 4 3 2 4 4 4 5 6 6 7 9 15 24 4 7 7 5 4 6 11 10 10 11 9 10 10 8 9 9 10 12 13 14 14 13 18 23 26 28 28 29 29 29 29 30 30 30 31 29 28 29 30 30 31 31 31 31 32 31 31 31
7 6 6 6 5 5 4 4 4 4 3 3 3 3 4 4 3 3 3 4 4 4 5 6 4 6 3 4 4 5 5 4 5 4 5 10 18 18 19 7 6 7 10 7 7 8 8 9 9 9 10 10 11 12 13 13 13 13 14 19 22 27 28 29 29 30 27 27 29 30 30 29 31 31 30 31 30 30 31 30 31 31 32 30 32
7 6 6 6 5 5 4 4 4 3 3 3 3 3 3 3 3 3 4 5 4 5 6 6 6 5 4 4 4 4 4 4 4 5 7 7 12 20 18 21 24 7 0 10 11 6 9 9 10 11 10 11 12 12 13 13 12 11 14 20 20 25 27 29 29 28 27 28 28 30 32 33 31 32 31 32 33 31 31 31 32 32 32 33 30
7 6 6 6 5 5 5 4 4 3 3 4 4 4 4 4 5 4 5 5 5 5 6 6 5 5 5 5 6 6 6 6 6 5 5 6 9 15 16 16 17 24 13 5 10 10 10 10 11 11 10 12 12 11 12 12 13 14 20 22 26 29 30 31 31 31 31 31 31 31 32 31 31 30 34 36 36 34 32 31 32 32 30 30 31
7 7 7 6 6 5 5 4 4 4 4 4 4 4 5 3 2 3 3 4 4 5 5 6 6 6 5 5 6 5 6 7 6 6 6 8 8 13 15 15 18 16 13 10 12 11 10 10 11 11 12 12 10 10 11 11 11 19 19 22 28 31 32 33 32 31 32 33 33 34 36 35 34 34 34 37 34 32 31 30 31 33 32 33 31
7 8 7 8 7 6 6 6 5 5 5 5 4 3 1 2 3 4 4 5 5 5 6 6 6 6 6 5 5 5 6 5 6 6 6 7 7 12 14 10 15 19 20 13 11 7 9 10 12 10 11 10 9 7 8 11 12 17 22 18 28 30 31 32 32 34 35 35 35 34 35 36 36 36 35 35 35 34 34 32 31 33 33 32 34
8 7 7 7 6 6 5 5 4 4 3 2 2 2 2 3 3 4 4 5 4 5 7 6 6 6 5 6 6 7 7 6 7 6 8 7 9 10 12 12 12 17 16 16 16 13 8 6 8 7 5 6 9 10 10 11 12 17 21 18 21 28 31 32 32 32 33 32 34 35 33 35 37 36 34 34 35 35 35 34 33 32 33 33 35
8 7 7 7 6 5 5 4 4 4 3 3 3 3 3 3 3 4 4 4 5 6 7 6 7 7 6 6 7 7 7 7 7 7 7 8 9 9 9 14 16 15 16 13 17 17 16 11 8 8 8 8 7 9 9 9 13 20 21 18 16 23 27 28 30 32 33 33 33 32 31 31 33 36 37 34 35 37 38 37 36 34 33 34 34
7 7 6 6 6 5 4 4 4 4 4 4 3 3 3 3 3 3 5 3 5 6 7 6 7 7 7 7 7 8 7 8 7 8 8 8 8 8 9 10 13 19 16 18 16 18 15 13 12 7 6 8 5 3 11 15 13 22 23 15 13 15 23 27 30 31 31 31 32 32 33 34 36 36 36 35 34 34 33 32 32 33 32 32 29
7 6 7 5 6 5 5 5 4 4 4 3 3 3 3 3 4 4 6 4 5 6 7 7 6 6 5 7 7 8 8 7 7 7 8 7 8 8 8 10 10 13 15 17 22 19 20 11 11 9 2 3 10 7 8 10 14 16 14 14 15 16 22 33 34 33 34 34 34 34 33 33 33 35 34 31 32 34 37 37 36 33 34 34 33
7 6 6 6 5 5 5 4 4 3 3 3 3 3 3 4 4 5 5 4 6 6 6 6 6 5 6 7 7 8 8 7 7 7 7 8 8 8 9 9 9 13 13 14 20 16 19 19 14 11 11 5 5 12 8 10 18 19 13 15 16 17 29 33 33 34 35 36 36 37 37 37 37 36 35 33 36 38 39 38 36 34 33 34 35
8 7 7 6 5 5 5 4 4 4 4 4 3 3 3 4 4 5 4 4 5 7 6 5 6 5 6 8 8 9 8 8 7 7 8 8 9 9 10 10 11 12 13 13 17 21 13 19 21 14 11 15 11 11 14 11 13 18 15 15 17 23 30 26 33 34 34 34 34 35 36 35 36 37 34 37 36 36 38 37 35 35 35 35 35
7 7 7 6 6 6 5 5 4 4 4 3 3 3 3 4 4 5 5 5 6 7 6 5 5 6 7 9 9 9 8 7 8 8 8 9 9 10 11 11 11 10 10 12 16 24 17 17 20 24 14 15 17 13 14 14 12 20 15 14 16 25 20 16 27 32 32 33 33 34 36 37 36 35 36 34 43 44 40 35 32 33 33 35 34
8 8 7 7 6 6 5 4 4 4 3 3 3 3 3 4 5 5 5 5 7 7 6 7 6 7 8 9 10 10 8 9 9 8 9 10 11 11 10 9 10 9 10 13 17 21 19 17 17 20 17 13 18 13 12 14 12 10 12 15 16 14 14 14 16 25 33 34 34 35 36 36 36 36 38 37 40 40 33 36 36 33 32 32 34
8 7 7 6 5 5 4 4 4 3 3 3 3 3 4 5 6 5 6 6 7 8 6 8 7 7 8 9 10 10 8 10 10 10 9 11 11 11 12 11 11 11 11 13 16 17 25 17 18 17 17 10 18 15 12 15 14 11 14 15 14 14 15 14 15 16 30 33 34 35 36 37 36 36 36 39 37 38 39 35 33 31 30 29 30
7 7 6 6 5 5 4 4 4 4 4 3 3 3 5 6 7 6 6 6 7 8 8 9 8 8 9 10 11 9 8 9 10 10 10 11 10 11 10 8 11 12 13 13 15 19 20 23 17 18 16 13 14 16 14 14 16 14 16 14 14 14 12 14 16 15 26 33 36 35 36 37 37 36 36 37 36 36 36 33 33 32 30 28 29
8 6 6 6 6 5 5 4 4 4 4 4 4 5 6 7 7 7 7 8 8 8 9 9 9 8 9 10 10 9 9 11 11 11 11 12 11 11 13 12 13 15 14 14 16 17 18 21 20 17 14 16 16 16 13 13 15 14 14 15 13 14 14 12 14 16 23 37 39 39 37 38 38 38 37 36 34 31 32 34 31 30 29 28 27
8 8 7 6 6 5 6 5 5 4 4 4 5 6 6 6 7 7 8 8 8 9 9 9 9 9 10 11 11 9 10 12 12 11 10 12 13 13 14 13 13 14 12 13 16 17 20 19 21 16 16 14 15 15 12 13 13 13 12 13 13 16 18 17 14 18 28 37 38 39 36 36 37 38 37 39 36 32 31 35 32 28 27 28 27
9 8 8 6 6 6 5 5 4 4 4 4 4 5 6 6 7 7 8 8 9 9 9 9 10 9 10 11 10 10 11 12 12 12 13 16 14 16 16 17 17 17 17 18 16 19 17 22 18 21 15 15 15 15 14 13 15 15 13 14 14 14 13 15 13 13 13 15 14 17 24 28 33 36 37 35 35 34 34 32 34 30 27 27 27
10 9 8 7 6 6 5 4 4 4 4 4 5 6 7 7 8 8 8 8 9 8 8 9 9 9 10 11 11 12 14 13 17 17 15 15 14 17 19 17 18 16 19 15 18 17 20 18 21 19 17 18 14 20 12 12 14 15 16 16 19 13 10 13 15 11 12 16 23 32 27 25 26 25 28 33 32 33 32 31 33 34 30 29 28
9 9 8 7 5 4 4 4 4 3 4 4 5 7 7 7 7 7 7 7 7 8 9 10 10 11 12 13 14 14 15 15 15 17 16 16 16 19 16 16 14 18 16 18 16 17 18 17 22 17 18 15 16 15 15 13 14 15 12 14 19 18 12 12 13 15 14 13 14 13 18 22 24 30 35 37 38 35 33 32 35 34 34 33 31
6 7 6 6 6 5 4 5 4 4 5 6 6 7 7 7 6 6 6 7 9 10 11 12 12 13 13 13 14 14 16 20 25 22 22 21 15 11 11 11 15 16 17 16 14 15 14 16 18 14 18 15 18 12 15 13 16 13 15 12 16 16 12 14 14 13 13 14 13 14 16 16 16 17 16 15 17 25 28 33 28 32 32 32 31
7 7 6 5 6 5 5 5 5 6 6 6 9 16 13 7 6 6 7 8 10 11 11 12 12 12 13 13 13 21 23 24 26 27 28 28 28 23 19 16 15 13 14 14 15 14 15 17 17 14 18 14 18 15 15 15 16 14 16 16 17 18 15 17 18 15 13 16 16 16 16 16 16 17 14 13 12 15 13 15 16 19 24 30 31
9 8 7 6 5 6 7 6 7 6 6 6 13 14 14 15 9 7 9 10 10 11 11 12 12 13 12 12 12 16 19 20 19 26 26 28 29 30 32 31 27 22 17 17 16 14 14 15 16 15 17 20 19 17 18 18 17 16 17 16 16 16 15 15 20 19 13 11 13 14 15 13 12 12 11 11 10 10 11 14 21 24 27 28 28
8 7 6 7 7 6 6 7 7 6 5 9 14 14 14 14 13 9 9 9 9 10 11 11 11 11 13 13 12 12 12 13 15 16 21 27 30 31 33 32 32 33 32 23 18 17 17 17 17 16 15 17 18 14 17 15 17 17 18 17 17 16 16 15 18 16 17 8 14 16 19 14 7 9 10 11 10 11 13 17 23 26 27 28 29
6 7 8 7 7 7 6 6 6 5 6 10 13 14 13 13 13 12 9 9 9 10 10 11 12 12 13 14 14 12 11 22 19 16 16 18 25 32 33 34 34 35 33 34 33 25 19 20 21 23 18 13 16 17 15 17 18 19 17 17 16 14 15 16 15 15 19 8 10 15 18 19 15 14 12 12 11 11 13 18 24 26 28 28 28
7 7 7 7 6 7 6 5 5 6 7 9 13 12 12 13 12 12 8 9 9 10 11 11 11 12 14 14 13 14 16 17 15 15 16 18 18 17 17 16 15 21 29 34 34 37 32 23 22 24 23 17 20 18 18 15 15 14 13 15 12 12 13 16 15 16 17 12 11 12 17 20 17 15 15 14 11 12 12 17 23 25 25 27 28
9 8 8 7 6 5 4 4 3 5 6 11 12 12 11 11 12 11 7 8 9 10 10 11 12 13 13 13 15 18 17 14 13 18 19 17 17 15 15 16 17 16 15 13 18 17 17 18 22 24 26 23 22 22 20 18 20 17 16 17 17 15 16 16 15 14 16 14 12 12 18 18 16 13 13 12 11 11 11 16 22 24 26 26 27
6 6 5 6 6 5 5 4 4 6 7 12 11 11 10 10 12 7 6 8 8 10 10 11 12 12 12 13 16 17 15 16 22 30 27 21 19 20 19 18 17 16 17 18 27 27 24 21 19 19 19 22 26 24 21 18 17 16 15 17 15 14 15 14 14 13 14 13 10 13 14 16 14 12 12 10 9 11 12 12 18 25 27 27 27
8 7 6 5 5 5 5 5 6 7 6 9 10 9 9 10 9 5 6 6 8 10 11 12 12 11 12 14 15 15 18 19 25 30 31 29 19 18 19 18 18 18 19 19 28 36 36 38 40 42 42 41 40 41 41 42 29 21 15 15 17 9 14 17 15 14 15 11 12 11 14 16 14 11 11 9 9 12 13 14 14 19 25 26 27
8 7 6 5 4 4 5 6 7 6 6 8 10 8 8 9 9 5 5 6 7 9 11 11 10 12 15 23 20 18 19 18 26 32 32 26 19 20 19 21 22 20 16 13 14 18 28 33 37 39 39 39 39 41 41 38 37 28 17 20 17 11 17 15 14 13 12 12 14 10 15 16 13 8 8 11 13 12 12 12 14 15 21 22 26
7 6 6 5 5 4 5 6 10 8 6 7 9 7 8 9 8 4 5 6 7 8 9 11 11 12 14 15 22 21 19 22 31 30 33 28 20 18 18 18 18 21 19 19 18 20 19 19 20 21 22 28 26 24 24 36 36 31 22 20 16 16 16 14 13 13 15 15 11 9 14 14 11 11 8 10 10 9 8 10 8 9 11 11 13
Wind_Direction
59 55 64 56 53 43 30 32 13 27 29 6 21 3 349 339 340 347 341 338 332 325 333 328 332 331 330 326 331 329 326 313 308 306 299 292 290 289 289 291 300 303 303 304 305 307 307 306 306 307 308 307 305 303 301 301 299 296 293 292 293 292 291 288 280 276 266 253 244 236 238 240 239 236 234 234 235 231 221 216 216 213 207 202 201
68 52 77 64 60 46 34 34 23 30 35 15 14 8 338 330 330 332 334 330 325 319 328 324 325 326 322 327 327 325 318 320 317 315 307 302 291 285 287 291 293 300 302 303 304 306 307 307 307 306 307 308 307 306 303 301 300 299 296 291 289 290 291 288 286 279 274 263 250 238 233 235 239 239 236 232 231 230 226 224 220 215 215 209 203
89 66 67 71 76 58 35 40 25 31 40 16 3 343 313 301 302 316 324 316 307 312 314 315 317 317 319 321 315 318 316 310 308 306 307 305 304 302 301 302 300 300 303 304 306 306 306 308 308 308 307 306 307 308 307 304 302 300 299 296 290 286 287 287 284 281 277 272 259 243 234 236 237 236 236 234 230 229 229 228 225 217 222 212 197
111 96 113 91 87 69 49 56 21 43 34 7 330 303 293 285 307 327 315 306 313 312 306 319 317 312 314 315 313 314 305 302 303 300 297 297 297 298 299 301 304 303 305 307 308 310 309 308 308 308 308 307 307 307 308 307 305 302 300 298 297 291 286 286 286 283 276 271 271 263 247 235 236 234 235 236 235 232 229 229 230 223 210 207 195
118 124 128 107 101 89 70 61 53 57 26 335 319 326 334 327 323 335 330 334 321 316 325 325 315 315 317 314 315 307 302 305 301 298 290 287 287 287 285 289 292 300 303 307 308 311 314 314 313 311 310 309 308 307 307 308 307 304 301 298 297 295 290 284 284 284 280 273 267 263 257 243 235 235 234 235 238 237 233 229 229 227 217 212 205
117 127 107 103 115 111 88 46 67 50 7 338 351 344 317 315 331 343 325 322 320 320 326 318 307 303 308 300 304 299 303 300 295 290 288 285 284 283 286 288 289 292 295 298 305 309 311 313 312 312 310 308 308 308 307 306 306 306 303 300 296 294 292 290 285 281 279 276 269 267 262 256 249 240 237 236 237 237 235 232 231 231 228 214 204
117 130 135 134 111 86 62 72 66 43 8 348 341 316 304 320 341 328 319 325 318 313 312 300 299 299 295 303 296 296 293 289 287 283 280 279 278 279 283 285 290 294 297 294 293 297 296 296 302 308 310 309 309 308 306 303 302 302 303 302 299 295 293 290 289 286 283 278 273 267 266 259 253 252 250 243 237 235 235 234 232 230 226 220 212
139 136 132 110 110 86 73 57 63 47 7 331 321 303 307 329 318 314 326 317 317 307 301 300 301 300 298 296 291 287 284 279 277 276 274 280 281 283 279 277 278 281 282 283 281 281 278 286 296 303 306 306 307 306 304 302 301 300 300 300 300 298 295 292 289 287 285 284 284 275 266 263 256 250 252 248 242 235 234 235 233 231 228 220 210
144 139 135 130 88 88 65 89 80 68 308 286 280 282 309 302 300 319 343 313 312 301 304 301 297 292 292 288 286 285 281 276 272 271 274 273 279 279 279 274 268 266 267 267 276 273 279 285 291 296 297 296 298 302 302 301 302 302 299 299 299 299 298 295 290 286 286 283 281 281 278 268 262 255 244 246 243 240 237 235 234 232 229 230 229
146 142 109 98 107 114 157 129 123 150 234 261 261 271 273 277 320 334 338 316 311 310 301 293 288 289 291 290 286 282 276 276 272 274 274 273 269 269 266 269 271 266 267 272 271 272 278 280 283 286 287 288 292 299 301 301 300 300 300 299 299 299 298 297 294 290 285 285 283 280 276 275 270 262 254 246 242 235 235 234 234 232 232 230 228
142 130 136 130 131 133 130 191 153 184 224 245 261 271 305 14 358 323 323 305 293 287 282 286 295 298 297 292 286 279 277 271 273 273 268 258 259 256 262 266 264 264 264 268 264 271 271 274 283 290 284 285 286 293 298 300 300 299 298 297 297 296 295 294 293 291 288 285 285 283 280 275 271 267 258 252 252 245 233 234 234 233 231 226 218
144 141 130 132 141 164 159 144 192 202 216 240 261 329 1 351 340 337 317 301 280 276 283 299 294 294 291 290 288 289 282 277 275 271 268 270 264 268 266 264 274 276 283 274 276 282 289 300 302 294 290 287 285 286 292 298 296 294 297 300 298 297 296 294 289 287 288 289 287 283 282 279 274 269 263 256 253 250 248 239 233 233 228 223 216
144 138 152 155 150 171 182 190 198 203 210 223 165 12 8 342 316 320 305 300 294 289 298 306 304 296 279 288 292 275 272 275 271 274 272 278 299 308 301 315 308 305 297 291 296 305 308 304 300 298 297 296 289 291 293 299 305 305 299 296 295 295 296 301 303 300 301 303 300 294 286 278 276 273 266 258 254 252 247 248 243 231 224 221 220
153 148 157 155 161 166 164 181 179 219 220 112 3 331 310 297 288 305 257 291 298 313 303 328 328 353 334 329 320 309 278 263 266 298 346 325 309 301 298 293 289 289 284 293 296 295 299 297 294 294 293 291 295 308 313 307 297 292 292 292 294 297 299 300 298 296 298 296 295 290 286 284 276 272 272 264 257 253 252 246 248 241 225 221 219
155 155 156 162 168 155 162 175 194 176 27 358 1 323 299 294 275 264 299 284 285 288 290 8 306 333 299 293 317 330 331 294 344 1 324 300 290 285 284 280 287 286 294 305 301 295 293 298 297 294 294 297 301 299 296 290 284 284 286 289 289 290 291 290 289 289 288 288 285 284 283 282 283 276 270 269 263 256 251 250 245 245 238 223 225
159 158 158 158 162 164 160 159 206 166 162 250 297 271 275 280 271 259 260 299 297 288 313 328 331 352 346 18 302 314 316 269 332 297 276 285 278 268 273 299 296 290 293 284 283 293 298 297 291 290 288 289 289 287 282 282 280 279 277 277 281 286 289 287 285 284 284 284 284 284 282 281 281 282 276 270 268 261 256 252 251 244 243 238 223
161 161 160 169 169 161 155 180 174 174 143 181 230 237 243 240 240 273 269 254 282 283 304 313 284 214 191 333 328 312 262 314 326 300 190 4 281 284 274 277 269 284 293 291 291 289 290 284 282 284 284 283 282 281 279 278 279 277 278 279 280 282 279 278 278 281 283 280 284 290 290 286 282 278 278 275 271 268 261 254 251 249 242 243 234
159 160 161 163 162 154 156 163 181 202 185 202 216 237 252 259 251 237 253 250 259 281 284 297 259 238 215 195 205 254 312 311 348 310 275 255 264 209 266 258 276 291 288 286 283 283 277 282 284 285 284 281 280 280 280 277 275 274 271 268 268 273 274 275 277 279 279 280 281 283 283 280 278 279 277 280 280 272 268 260 252 248 245 237 237
162 161 163 165 157 157 162 175 191 188 197 198 226 234 241 245 254 247 241 253 269 275 271 275 311 279 244 233 242 260 272 306 297 314 319 316 178 269 228 231 268 279 280 265 282 287 284 284 284 281 279 279 281 282 282 281 276 273 269 267 264 268 271 273 274 274 274 272 273 275 278 278 276 276 278 275 274 276 275 267 258 250 246 243 237
161 164 163 163 159 161 164 178 185 197 193 208 210 220 229 255 245 233 246 249 251 259 270 264 256 272 273 281 277 268 254 254 251 266 291 306 308 269 218 242 254 239 264 287 282 275 284 279 277 277 279 281 283 283 283 283 283 279 275 270 271 273 274 273 273 270 268 268 270 271 272 275 276 275 277 276 274 271 271 275 271 257 248 245 241
164 163 167 162 160 165 170 179 185 200 195 208 215 216 228 238 263 280 266 264 242 246 259 263 256 259 286 284 287 266 273 257 267 264 256 300 290 300 308 283 229 252 278 265 269 285 283 288 290 291 292 291 287 281 279 278 276 277 279 280 278 278 277 276 273 270 266 266 270 271 270 268 273 275 276 278 276 271 269 268 273 273 256 244 241
167 164 163 164 160 163 171 179 190 198 198 210 218 231 240 242 241 244 252 256 252 253 252 258 251 253 244 253 260 286 291 282 266 258 270 237 269 299 308 316 316 307 208 298 292 280 287 289 288 288 289 288 286 284 281 279 279 280 277 281 284 286 286 283 277 273 272 274 274 271 267 268 265 270 273 277 277 274 270 268 267 272 270 254 241
163 168 164 162 164 166 171 183 186 191 201 204 217 215 225 233 234 232 234 237 247 247 257 255 250 253 253 242 242 243 239 259 265 265 265 277 294 285 293 300 296 303 306 274 282 289 285 284 284 282 279 278 278 278 278 278 282 286 294 297 295 291 287 284 282 280 279 278 279 278 271 264 264 265 273 274 273 271 269 267 266 266 272 268 247
161 163 171 165 166 171 174 178 185 194 209 210 217 216 216 208 224 232 246 247 245 245 244 249 251 250 250 240 247 243 249 250 258 255 248 265 272 283 290 303 299 285 291 302 284 275 271 275 275 274 276 274 273 279 284 290 293 298 300 297 294 291 288 285 282 281 281 278 275 272 268 265 264 265 265 266 266 267 267 268 268 265 265 270 269
167 162 169 167 164 168 173 179 188 201 210 209 208 201 201 233 239 245 244 247 246 250 250 246 241 243 245 246 250 249 253 250 258 256 257 269 267 278 279 286 284 296 302 309 297 286 269 268 262 263 266 267 275 279 293 296 294 291 292 290 289 288 285 282 281 279 277 272 270 266 266 265 265 263 259 259 261 264 266 263 265 267 264 266 268
165 171 168 163 164 167 169 176 180 184 186 201 214 217 217 224 234 241 247 250 252 250 251 253 252 252 251 262 252 257 258 255 256 257 263 268 265 264 284 285 279 286 292 300 294 302 280 223 246 255 253 278 286 292 293 290 287 288 291 291 287 283 282 281 280 279 277 276 278 277 275 272 264 259 256 256 261 264 266 265 262 263 264 261 262
163 162 153 154 155 150 158 165 179 195 200 206 204 207 212 225 233 240 248 246 248 249 252 251 255 252 252 248 257 252 251 253 249 251 253 250 259 266 274 288 292 284 286 285 292 280 282 284 259 261 272 272 276 285 285 291 299 304 306 303 300 300 298 293 286 281 280 283 283 282 279 273 268 261 259 258 260 264 264 265 263 262 262 261 260
146 141 145 144 147 151 161 178 185 196 202 200 205 209 217 227 244 242 253 244 244 246 249 247 250 252 254 253 257 256 252 253 249 255 250 251 253 259 259 266 279 291 295 297 292 283 284 288 288 243 235 272 271 279 294 296 295 297 295 289 291 294 296 296 295 294 292 287 282 278 273 271 269 265 261 257 256 257 260 262 263 262 264 264 264
143 142 140 141 149 157 175 184 193 195 197 203 206 212 213 222 231 241 252 247 248 249 252 247 249 252 251 254 253 261 259 256 259 254 252 252 251 251 246 252 255 268 285 292 289 296 296 290 288 294 178 263 290 283 285 287 287 288 293 296 296 296 296 295 291 290 288 287 287 286 287 288 286 274 258 253 252 255 258 261 262 260 258 257 256
142 142 139 148 151 163 173 190 191 192 201 209 208 214 216 229 234 243 244 245 251 254 251 250 257 255 259 262 258 265 265 265 263 259 257 257 259 254 254 252 249 255 262 272 281 284 290 294 278 286 299 266 268 290 282 283 286 286 283 286 285 284 285 284 283 284 284 284 285 285 283 283 281 281 275 257 253 253 257 258 259 259 257 255 253
143 143 148 154 160 178 183 194 193 202 204 208 207 212 214 233 243 250 250 247 251 256 250 253 260 258 264 264 264 265 267 270 268 266 265 266 265 268 263 260 253 253 264 268 278 275 278 290 291 285 289 298 290 286 288 280 277 283 280 277 276 277 281 281 279 277 277 277 279 280 280 278 277 276 277 275 258 252 252 256 259 260 258 254 252
150 148 156 162 172 185 187 186 197 198 205 210 203 214 221 232 239 247 251 248 254 256 260 254 262 263 266 267 264 264 270 271 267 266 266 264 266 265 264 260 259 254 259 264 262 272 275 280 286 291 292 296 293 285 284 284 275 275 275 273 278 285 283 277 277 276 277 276 276 277 279 279 279 277 276 276 269 255 254 253 256 258 260 259 251
151 155 163 169 174 178 180 186 191 202 206 218 203 206 219 237 239 242 247 248 254 257 261 263 258 263 262 265 264 264 267 267 266 266 266 266 264 259 257 259 262 257 252 258 263 272 277 272 280 282 294 299 289 286 283 282 281 274 275 276 277 275 276 275 276 277 277 276 275 275 275 276 274 273 270 268 268 253 247 252 254 256 256 257 257
153 159 165 165 170 174 178 192 197 205 215 214 217 213 240 246 250 242 246 248 250 257 255 260 258 255 261 263 266 267 263 263 267 267 266 267 264 263 257 252 254 258 255 261 264 269 276 279 276 280 286 290 287 288 285 284 282 279 277 278 279 276 277 276 279 275 277 277 275 273 272 273 271 271 269 263 262 259 253 252 253 254 254 254 253
152 157 160 162 168 169 176 188 198 209 212 219 215 221 235 240 245 246 246 247 252 257 258 260 261 262 263 261 264 266 265 267 265 266 265 265 265 262 266 262 263 262 259 254 264 268 270 275 275 281 282 287 276 289 285 275 279 278 278 275 276 277 265 265 267 271 275 278 277 275 271 270 271 268 265 262 259 257 253 253 253 251 252 250 249
150 154 156 163 162 172 182 193 203 208 213 217 221 226 233 238 242 247 246 248 251 253 256 259 260 259 259 265 264 263 264 268 268 266 263 259 258 262 266 265 263 263 257 255 249 262 266 272 271 272 278 282 280 279 280 275 275 275 271 271 264 267 276 277 280 281 279 276 274 274 274 274 273 273 272 264 257 258 261 257 250 248 248 248 246
154 153 161 162 166 173 187 197 209 213 215 217 225 230 235 234 239 243 246 247 249 251 254 256 258 257 259 260 264 261 262 265 265 260 261 266 268 267 265 262 260 262 256 255 257 256 263 261 268 269 272 271 272 275 274 275 275 271 275 274 278 275 274 270 268 272 276 276 272 271 272 271 271 271 270 268 265 262 257 259 258 251 249 248 245
156 160 160 162 170 183 185 200 204 214 214 219 228 235 239 242 242 243 246 248 249 253 253 253 253 253 257 259 261 260 259 259 264 267 268 266 266 269 265 270 268 267 263 262 255 258 255 262 262 270 267 265 273 266 270 273 280 282 278 276 271 267 270 273 263 266 266 272 269 263 263 264 266 264 265 265 263 261 261 259 260 255 250 249 246
156 159 163 162 169 172 188 189 206 208 221 226 232 240 242 244 242 245 249 249 251 251 254 256 257 258 258 258 260 265 264 264 271 270 263 259 260 263 270 265 266 261 264 259 259 257 259 260 264 263 271 267 262 276 263 260 267 270 282 285 282 273 266 268 272 264 263 266 269 270 269 268 265 264 264 263 260 257 254 254 255 252 250 248 245
158 161 160 161 162 162 182 196 210 208 221 232 236 239 241 240 243 245 247 253 258 261 259 257 257 260 262 265 265 261 262 261 261 266 263 269 270 271 267 263 258 262 260 263 259 256 260 257 262 262 260 267 263 265 268 265 263 266 257 273 280 284 283 282 280 291 284 273 271 269 265 264 262 260 257 256 257 256 254 251 249 249 248 245 241
140 144 144 145 159 170 185 196 208 217 221 230 231 236 238 243 239 244 250 258 258 263 268 269 269 268 266 267 264 264 265 266 267 269 272 275 274 270 259 240 249 253 259 258 255 257 257 258 261 258 262 261 259 261 267 258 258 257 271 268 274 274 281 279 274 261 266 280 276 269 271 265 265 263 256 247 244 244 247 248 250 248 244 242 238
135 140 145 149 162 178 189 208 210 220 228 226 236 243 244 234 226 235 243 253 265 269 272 275 272 269 271 271 271 274 279 280 282 285 284 283 283 282 283 282 278 270 260 260 259 256 258 260 259 261 262 254 259 249 250 260 260 265 267 267 270 277 279 278 277 273 271 273 272 272 265 257 252 254 247 245 244 239 241 243 243 243 239 236 234
144 146 148 155 170 189 201 209 218 223 228 228 243 250 254 261 262 262 270 270 266 267 271 274 277 282 279 276 279 281 281 281 281 281 285 287 285 285 285 284 282 281 281 277 274 273 266 260 263 258 258 261 256 257 253 261 256 261 261 263 266 272 274 279 283 290 266 247 266 271 270 272 257 248 250 254 259 258 256 251 248 241 235 231 228
145 143 151 171 180 192 202 211 218 224 230 244 250 254 261 266 272 271 269 271 272 275 277 278 283 286 289 289 284 282 277 277 282 284 284 284 286 287 286 286 284 281 278 276 274 273 272 276 274 267 259 260 264 256 255 260 258 261 256 259 259 262 266 266 272 277 283 299 297 292 293 290 274 266 273 267 264 264 261 264 260 250 238 232 226
139 154 168 173 184 193 204 208 220 229 242 249 255 261 266 271 275 279 277 277 279 278 286 289 289 289 289 290 289 282 284 289 290 282 281 282 283 285 287 287 284 282 280 278 276 273 272 271 271 272 264 270 267 261 252 251 254 259 256 258 255 254 256 263 265 275 276 288 297 295 294 292 293 288 276 267 264 265 267 264 262 260 250 233 226
156 160 166 174 181 190 197 204 221 242 249 252 261 266 270 276 281 285 282 285 288 290 289 290 288 289 290 290 289 292 293 290 286 285 285 285 286 287 284 279 273 273 276 275 271 271 271 271 272 272 272 264 267 270 266 260 258 253 256 257 257 258 259 260 268 267 273 281 272 288 286 281 282 280 274 275 273 270 264 260 260 261 259 244 227
157 160 166 170 180 179 192 201 216 246 250 258 264 270 278 285 289 294 296 296 290 289 288 286 289 289 289 287 290 293 291 289 287 291 294 295 294 290 283 278 276 274 263 243 258 262 260 258 259 261 265 262 261 263 263 259 256 258 257 260 257 258 266 270 264 259 269 266 262 262 267 274 271 264 265 271 273 268 265 270 268 264 262 253 233
142 147 155 161 173 176 174 180 215 243 252 259 269 276 282 291 297 303 298 292 293 293 291 290 290 290 287 291 295 295 293 295 297 300 301 301 297 292 289 287 286 283 280 277 277 276 273 266 258 256 257 259 259 259 258 252 250 249 251 255 255 251 262 260 259 266 261 267 249 252 260 263 262 260 270 265 268 273 274 269 265 262 261 255 239
152 157 156 160 163 165 180 192 216 238 247 260 269 277 287 295 303 285 293 294 293 293 293 293 292 288 291 294 296 299 301 300 301 303 304 304 299 297 292 286 279 276 276 276 274 278 279 277 274 274 272 271 269 267 265 260 254 251 248 252 247 233 247 256 259 260 261 263 257 234 252 260 261 260 267 271 270 273 273 270 264 259 257 253 238
151 155 153 146 160 171 190 204 213 229 241 257 269 285 295 296 300 299 293 279 277 290 294 293 292 294 297 301 303 303 301 300 303 304 305 306 299 293 286 284 284 282 282 279 280 279 279 279 278 276 273 272 270 269 269 268 267 264 253 250 251 241 246 247 256 255 263 255 253 249 260 256 266 263 279 281 279 263 259 259 259 252 251 248 234
134 140 142 150 164 182 200 208 222 230 230 250 274 292 293 296 302 289 281 280 283 286 292 293 296 298 302 305 304 303 303 304 305 307 306 305 296 292 292 292 292 293 297 301 298 293 285 277 270 266 262 263 263 261 261 262 263 262 256 255 253 245 252 251 254 264 267 256 250 238 260 267 263 264 260 274 271 269 236 255 267 285 265 239 222